BAW2546 EGKK-EHAM

Flight info

Callsign BAW2546
Flight time N/A
Altitude 29000
Route FRANE M604 GASBA M197 REDFA
Aircraft A320/M-SDE3FGHIRWY/LB1

Departure

Time 2026-05-06 20:19
Airport London Gatwick Airport (EGKK)

Arrival

Time N/A
Airport Amsterdam Airport Schiphol (EHAM)
Time Latitude Longitude Altitude Speed Heading
2026-05-06 19:31 51.15853 -0.17512 209 ft 0 kts 348°
2026-05-06 20:01 51.15847 -0.17510 217 ft 2 kts 348°
2026-05-06 20:01 51.15827 -0.17503 207 ft 3 kts 346°
2026-05-06 20:02 51.15808 -0.17494 214 ft 3 kts 341°
2026-05-06 20:02 51.15789 -0.17482 211 ft 3 kts 328°
2026-05-06 20:02 51.15775 -0.17464 217 ft 3 kts 295°
2026-05-06 20:02 51.15772 -0.17448 213 ft 1 kts 258°
2026-05-06 20:03 51.15772 -0.17447 213 ft 0 kts 258°
2026-05-06 20:06 51.15771 -0.17451 212 ft 1 kts 258°
2026-05-06 20:07 51.15770 -0.17457 217 ft 0 kts 258°
2026-05-06 20:07 51.15770 -0.17458 217 ft 0 kts 257°
2026-05-06 20:08 51.15770 -0.17460 217 ft 1 kts 254°
2026-05-06 20:08 51.15755 -0.17488 207 ft 5 kts 218°
2026-05-06 20:09 51.15705 -0.17493 213 ft 10 kts 171°
2026-05-06 20:09 51.15651 -0.17475 205 ft 10 kts 167°
2026-05-06 20:09 51.15595 -0.17454 210 ft 1 kts 167°
2026-05-06 20:09 51.15572 -0.17455 210 ft 6 kts 191°
2026-05-06 20:10 51.15542 -0.17505 205 ft 0 kts 241°
2026-05-06 20:10 51.15536 -0.17504 205 ft 1 kts 176°
2026-05-06 20:10 51.15530 -0.17478 215 ft 5 kts 96°
2026-05-06 20:10 51.15492 -0.17418 205 ft 11 kts 158°
2026-05-06 20:11 51.15395 -0.17385 205 ft 16 kts 168°
2026-05-06 20:11 51.15303 -0.17430 207 ft 17 kts 247°
2026-05-06 20:11 51.15279 -0.17614 206 ft 18 kts 257°
2026-05-06 20:11 51.15251 -0.17814 207 ft 15 kts 258°
2026-05-06 20:12 51.15224 -0.18013 213 ft 22 kts 257°
2026-05-06 20:12 51.15191 -0.18253 206 ft 23 kts 258°
2026-05-06 20:12 51.15157 -0.18529 211 ft 27 kts 258°
2026-05-06 20:12 51.15127 -0.18757 213 ft 21 kts 257°
2026-05-06 20:13 51.15095 -0.18994 205 ft 24 kts 257°
2026-05-06 20:13 51.15061 -0.19250 205 ft 24 kts 256°
2026-05-06 20:13 51.15026 -0.19496 212 ft 20 kts 257°
2026-05-06 20:13 51.14994 -0.19723 204 ft 22 kts 258°
2026-05-06 20:14 51.14965 -0.19939 206 ft 21 kts 257°
2026-05-06 20:14 51.14940 -0.20112 214 ft 14 kts 257°
2026-05-06 20:14 51.14918 -0.20273 203 ft 16 kts 257°
2026-05-06 20:14 51.14892 -0.20463 205 ft 16 kts 257°
2026-05-06 20:15 51.14869 -0.20633 209 ft 17 kts 258°
2026-05-06 20:15 51.14847 -0.20790 202 ft 14 kts 258°
2026-05-06 20:15 51.14826 -0.20948 213 ft 16 kts 258°
2026-05-06 20:15 51.14808 -0.21080 209 ft 12 kts 258°
2026-05-06 20:16 51.14778 -0.21221 205 ft 15 kts 256°
2026-05-06 20:16 51.14751 -0.21381 209 ft 13 kts 229°
2026-05-06 20:16 51.14727 -0.21398 203 ft 1 kts 187°
2026-05-06 20:16 51.14709 -0.21398 201 ft 4 kts 178°
2026-05-06 20:17 51.14659 -0.21357 206 ft 13 kts 145°
2026-05-06 20:17 51.14569 -0.21298 205 ft 16 kts 152°
2026-05-06 20:17 51.14526 -0.21134 214 ft 19 kts 85°
2026-05-06 20:17 51.14546 -0.20937 209 ft 0 kts 78°
2026-05-06 20:18 51.14546 -0.20935 209 ft 2 kts 78°
2026-05-06 20:19 51.14597 -0.20574 207 ft 73 kts 78°
2026-05-06 20:19 51.14757 -0.19428 210 ft 136 kts 77°
2026-05-06 20:19 51.14998 -0.17717 353 ft 170 kts 76°
2026-05-06 20:19 51.15256 -0.15808 804 ft 183 kts 76°
2026-05-06 20:20 51.15518 -0.13793 1322 ft 193 kts 78°
2026-05-06 20:20 51.15788 -0.11665 1770 ft 203 kts 78°
2026-05-06 20:20 51.16098 -0.09333 2043 ft 227 kts 75°
2026-05-06 20:20 51.16462 -0.06766 2366 ft 247 kts 76°
2026-05-06 20:21 51.16834 -0.03970 2835 ft 266 kts 82°
2026-05-06 20:21 51.16857 -0.00990 3628 ft 271 kts 91°
2026-05-06 20:21 51.16811 0.02024 4477 ft 274 kts 91°
2026-05-06 20:21 51.16757 0.05094 4875 ft 278 kts 91°
2026-05-06 20:22 51.16697 0.08257 4977 ft 295 kts 92°
2026-05-06 20:22 51.16633 0.11563 4988 ft 299 kts 92°
2026-05-06 20:22 51.16571 0.14870 4988 ft 299 kts 91°
2026-05-06 20:22 51.16532 0.18187 4989 ft 299 kts 90°
2026-05-06 20:23 51.16531 0.21497 4988 ft 298 kts 89°
2026-05-06 20:23 51.16540 0.23691 4989 ft 298 kts 89°
2026-05-06 20:23 51.16558 0.26987 4987 ft 298 kts 89°
2026-05-06 20:23 51.16574 0.30307 5019 ft 301 kts 89°
2026-05-06 20:24 51.16585 0.33652 5865 ft 303 kts 89°
2026-05-06 20:24 51.16601 0.37014 6863 ft 305 kts 87°
2026-05-06 20:24 51.17071 0.40293 7740 ft 305 kts 61°
2026-05-06 20:24 51.18338 0.42957 8584 ft 302 kts 34°
2026-05-06 20:25 51.20133 0.44533 9449 ft 284 kts 14°
2026-05-06 20:25 51.21955 0.45790 10300 ft 288 kts 20°
2026-05-06 20:25 51.23751 0.47237 11161 ft 290 kts 21°
2026-05-06 20:25 51.25551 0.48705 12017 ft 291 kts 21°
2026-05-06 20:26 51.27368 0.50181 12715 ft 299 kts 21°
2026-05-06 20:26 51.29302 0.51732 12952 ft 324 kts 21°
2026-05-06 20:26 51.31411 0.53394 13005 ft 352 kts 21°
2026-05-06 20:26 51.33682 0.55160 13010 ft 369 kts 21°
2026-05-06 20:27 51.36009 0.56960 13006 ft 373 kts 21°
2026-05-06 20:27 51.38316 0.58745 13014 ft 375 kts 21°
2026-05-06 20:27 51.40683 0.60573 13649 ft 378 kts 21°
2026-05-06 20:27 51.43056 0.62404 14364 ft 380 kts 21°
2026-05-06 20:28 51.45453 0.64251 15018 ft 384 kts 21°
2026-05-06 20:28 51.47875 0.66094 15642 ft 386 kts 19°
2026-05-06 20:28 51.50421 0.67446 16237 ft 386 kts 11°
2026-05-06 20:28 51.53031 0.68526 16858 ft 388 kts
2026-05-06 20:29 51.55679 0.69495 17477 ft 391 kts
2026-05-06 20:29 51.58358 0.70429 18095 ft 395 kts
2026-05-06 20:29 51.61015 0.71362 19147 ft 383 kts
2026-05-06 20:29 51.63598 0.72306 20078 ft 380 kts 10°
2026-05-06 20:30 51.66078 0.73892 20724 ft 391 kts 27°
2026-05-06 20:30 51.69613 0.80575 21812 ft 409 kts 65°
2026-05-06 20:30 51.70713 0.84820 22352 ft 412 kts 66°
2026-05-06 20:31 51.71827 0.89108 22883 ft 416 kts 65°
2026-05-06 20:31 51.72951 0.93425 23422 ft 419 kts 65°
2026-05-06 20:31 51.74077 0.97774 23956 ft 422 kts 66°
2026-05-06 20:31 51.75206 1.02175 24479 ft 425 kts 66°
2026-05-06 20:32 51.76333 1.06600 24976 ft 428 kts 66°
2026-05-06 20:32 51.77459 1.11068 25455 ft 431 kts 66°
2026-05-06 20:32 51.78648 1.15528 25920 ft 434 kts 65°
2026-05-06 20:32 51.79822 1.20029 26363 ft 437 kts 65°
2026-05-06 20:33 51.81010 1.24571 26802 ft 439 kts 63°
2026-05-06 20:33 51.82387 1.28988 27228 ft 441 kts 61°
2026-05-06 20:33 51.83682 1.33509 27627 ft 445 kts 65°
2026-05-06 20:33 51.84858 1.38062 27997 ft 429 kts 66°
2026-05-06 20:34 51.85939 1.42473 27971 ft 416 kts 67°
2026-05-06 20:34 51.86958 1.46746 27754 ft 410 kts 67°
2026-05-06 20:34 51.87975 1.51027 27429 ft 406 kts 67°
2026-05-06 20:34 51.88995 1.55281 27066 ft 403 kts 67°
2026-05-06 20:35 51.90015 1.59493 26699 ft 401 kts 67°
2026-05-06 20:35 51.91033 1.63678 26319 ft 398 kts 66°
2026-05-06 20:35 51.92051 1.67839 25936 ft 396 kts 66°
2026-05-06 20:35 51.93066 1.71977 25554 ft 394 kts 66°
2026-05-06 20:36 51.94074 1.76091 25154 ft 392 kts 66°
2026-05-06 20:36 51.95073 1.80187 24760 ft 389 kts 66°
2026-05-06 20:36 51.96061 1.84261 24352 ft 387 kts 67°
2026-05-06 20:36 51.97040 1.88312 23946 ft 385 kts 67°
2026-05-06 20:37 51.98015 1.92354 23552 ft 382 kts 67°
2026-05-06 20:37 51.98970 1.96308 23157 ft 380 kts 67°
2026-05-06 20:37 51.99931 2.00293 22978 ft 379 kts 67°
2026-05-06 20:37 52.00890 2.04275 23006 ft 380 kts 67°
2026-05-06 20:38 52.01851 2.08278 23008 ft 381 kts 67°
2026-05-06 20:38 52.02809 2.12283 23010 ft 381 kts 67°
2026-05-06 20:38 52.03764 2.16293 23009 ft 381 kts 67°
2026-05-06 20:38 52.04717 2.20307 23008 ft 381 kts 67°
2026-05-06 20:39 52.05670 2.24322 23010 ft 381 kts 67°
2026-05-06 20:39 52.06624 2.28342 23009 ft 381 kts 67°
2026-05-06 20:39 52.07575 2.32361 23010 ft 381 kts 67°
2026-05-06 20:39 52.08525 2.36378 23009 ft 381 kts 67°
2026-05-06 20:40 52.09476 2.40402 23009 ft 381 kts 67°
2026-05-06 20:40 52.10424 2.44416 23010 ft 381 kts 67°
2026-05-06 20:40 52.11403 2.48419 23008 ft 380 kts 63°
2026-05-06 20:40 52.12681 2.52164 23009 ft 378 kts 57°
2026-05-06 20:41 52.14035 2.55869 22460 ft 386 kts 57°
2026-05-06 20:41 52.15414 2.59649 21979 ft 386 kts 57°
2026-05-06 20:41 52.16770 2.63381 21652 ft 380 kts 57°
2026-05-06 20:41 52.18105 2.67075 21311 ft 376 kts 57°
2026-05-06 20:42 52.19418 2.70730 20975 ft 371 kts 57°
2026-05-06 20:42 52.20713 2.74343 20638 ft 367 kts 57°
2026-05-06 20:42 52.21997 2.77929 20314 ft 364 kts 57°
2026-05-06 20:42 52.23274 2.81488 19984 ft 362 kts 57°
2026-05-06 20:43 52.24544 2.85024 19658 ft 360 kts 57°
2026-05-06 20:43 52.25792 2.88504 19332 ft 359 kts 57°
2026-05-06 20:43 52.27051 2.92006 19016 ft 357 kts 57°
2026-05-06 20:43 52.28306 2.95495 18694 ft 355 kts 57°
2026-05-06 20:44 52.29550 2.98969 18376 ft 354 kts 57°
2026-05-06 20:44 52.30790 3.02451 18057 ft 352 kts 57°
2026-05-06 20:44 52.32018 3.05911 17739 ft 351 kts 57°
2026-05-06 20:44 52.33238 3.09353 17425 ft 349 kts 57°
2026-05-06 20:45 52.34454 3.12776 17111 ft 347 kts 57°
2026-05-06 20:45 52.35665 3.16183 16799 ft 346 kts 57°
2026-05-06 20:45 52.36868 3.19580 16487 ft 344 kts 57°
2026-05-06 20:45 52.38063 3.22967 16171 ft 343 kts 57°
2026-05-06 20:46 52.39251 3.26339 15869 ft 341 kts 57°
2026-05-06 20:46 52.40419 3.29650 15567 ft 340 kts 57°
2026-05-06 20:46 52.41600 3.33002 15260 ft 338 kts 57°
2026-05-06 20:46 52.42773 3.36332 14956 ft 337 kts 57°
2026-05-06 20:47 52.43937 3.39650 14654 ft 335 kts 57°
2026-05-06 20:47 52.44909 3.43121 14343 ft 336 kts 71°
2026-05-06 20:47 52.45470 3.46837 14044 ft 336 kts 76°
2026-05-06 20:47 52.45999 3.50559 13744 ft 334 kts 75°
2026-05-06 20:48 52.46529 3.54267 13439 ft 333 kts 75°
2026-05-06 20:48 52.47059 3.57955 13139 ft 332 kts 75°
2026-05-06 20:48 52.47588 3.61629 12840 ft 330 kts 75°
2026-05-06 20:48 52.48114 3.65291 12542 ft 329 kts 75°
2026-05-06 20:49 52.48636 3.68938 12241 ft 328 kts 75°
2026-05-06 20:49 52.49155 3.72575 11946 ft 326 kts 75°
2026-05-06 20:49 52.49663 3.76152 11655 ft 325 kts 75°
2026-05-06 20:49 52.50173 3.79761 11361 ft 324 kts 76°
2026-05-06 20:50 52.50678 3.83354 11069 ft 322 kts 76°
2026-05-06 20:50 52.51181 3.86941 10776 ft 321 kts 76°
2026-05-06 20:50 52.51682 3.90514 10485 ft 320 kts 76°
2026-05-06 20:50 52.52019 3.94109 10191 ft 319 kts 90°
2026-05-06 20:51 52.51730 3.97691 9899 ft 316 kts 108°
2026-05-06 20:51 52.50816 4.00936 9542 ft 311 kts 127°
2026-05-06 20:51 52.49594 4.03847 9197 ft 309 kts 128°
2026-05-06 20:51 52.48398 4.06711 8856 ft 308 kts 128°
2026-05-06 20:52 52.47193 4.09611 8511 ft 306 kts 128°
2026-05-06 20:52 52.45995 4.12490 8176 ft 305 kts 128°
2026-05-06 20:52 52.44799 4.15358 7835 ft 303 kts 128°
2026-05-06 20:52 52.43607 4.18209 7500 ft 302 kts 128°
2026-05-06 20:53 52.42420 4.21052 7149 ft 301 kts 128°
2026-05-06 20:53 52.41240 4.23877 6832 ft 300 kts 128°
2026-05-06 20:53 52.40061 4.26690 6499 ft 299 kts 128°
2026-05-06 20:53 52.38904 4.29451 6172 ft 297 kts 128°
2026-05-06 20:54 52.37720 4.32269 5839 ft 296 kts 128°
2026-05-06 20:54 52.36565 4.35009 5514 ft 295 kts 128°
2026-05-06 20:54 52.35401 4.37770 5188 ft 294 kts 128°
2026-05-06 20:54 52.34244 4.40522 4862 ft 293 kts 128°
2026-05-06 20:55 52.33090 4.43263 4537 ft 292 kts 128°
2026-05-06 20:55 52.31940 4.45993 4214 ft 291 kts 128°
2026-05-06 20:55 52.30792 4.48713 3890 ft 291 kts 128°
2026-05-06 20:55 52.29644 4.51423 3560 ft 290 kts 128°
2026-05-06 20:56 52.28498 4.54125 3258 ft 288 kts 128°
2026-05-06 20:56 52.27364 4.56801 2958 ft 286 kts 128°
2026-05-06 20:56 52.26239 4.59452 2753 ft 280 kts 128°
2026-05-06 20:56 52.25150 4.62019 2645 ft 270 kts 128°
2026-05-06 20:57 52.24099 4.64488 2530 ft 260 kts 129°
2026-05-06 20:57 52.23103 4.66828 2418 ft 250 kts 129°
2026-05-06 20:57 52.22129 4.69115 2303 ft 240 kts 129°
2026-05-06 20:57 52.21208 4.71317 2194 ft 231 kts 124°
2026-05-06 20:58 52.20843 4.73788 2098 ft 223 kts 81°
2026-05-06 20:58 52.21432 4.75953 1979 ft 202 kts 41°
2026-05-06 20:58 52.22585 4.77087 1471 ft 191 kts
2026-05-06 20:58 52.23875 4.77164 1071 ft 183 kts 351°
2026-05-06 20:59 52.25081 4.77316 826 ft 162 kts 354°
2026-05-06 20:59 52.26138 4.77450 617 ft 144 kts 353°
2026-05-06 20:59 52.27117 4.77550 413 ft 138 kts 352°
2026-05-06 20:59 52.28064 4.77642 245 ft 135 kts 354°
2026-05-06 21:00 52.28989 4.77724 98 ft 135 kts 355°
2026-05-06 21:00 52.29893 4.77815 14 ft 117 kts 359°
2026-05-06 21:00 52.30521 4.77864 19 ft 50 kts